TimeCDT,TemperatureF,Dew PointF,Humidity,Sea Level PressureIn,VisibilityMPH,Wind Direction,Wind SpeedMPH,Gust SpeedMPH,PrecipitationIn,Events,Conditions,WindDirDegrees,DateUTC
12:15 AM,68.5,65.3,89,29.94,10.0,SE,4.6,-,N/A,,Scattered Clouds,130,2013-06-25 05:15:00
12:35 AM,68.4,65.5,90,29.93,10.0,SSE,3.5,-,N/A,,Clear,150,2013-06-25 05:35:00
12:55 AM,68.4,65.3,90,29.93,10.0,SSE,5.8,-,N/A,,Clear,160,2013-06-25 05:55:00
1:15 AM,68.5,65.3,89,29.93,10.0,South,5.8,-,N/A,,Clear,180,2013-06-25 06:15:00
1:35 AM,68.5,65.5,90,29.92,10.0,South,5.8,-,N/A,,Clear,180,2013-06-25 06:35:00
1:55 AM,68.2,65.3,90,29.92,10.0,South,6.9,-,N/A,,Clear,190,2013-06-25 06:55:00
2:15 AM,68.5,66.2,92,29.92,10.0,SSW,6.9,-,N/A,,Clear,200,2013-06-25 07:15:00
2:35 AM,69.3,67.1,93,29.91,7.0,SSW,8.1,-,N/A,,Clear,200,2013-06-25 07:35:00
2:55 AM,71.1,68.9,93,29.91,7.0,SSW,10.4,-,N/A,,Clear,200,2013-06-25 07:55:00
3:15 AM,71.6,69.1,92,29.91,7.0,South,9.2,-,N/A,,Clear,190,2013-06-25 08:15:00
3:35 AM,72.0,69.6,92,29.90,5.0,South,9.2,-,N/A,,Clear,190,2013-06-25 08:35:00
3:55 AM,72.7,70.3,92,29.90,5.0,SSW,9.2,-,N/A,,Clear,200,2013-06-25 08:55:00
4:15 AM,72.9,70.5,92,29.89,7.0,SSW,12.7,-,N/A,,Clear,200,2013-06-25 09:15:00
4:35 AM,73.4,70.9,92,29.88,7.0,SSW,12.7,-,N/A,,Clear,210,2013-06-25 09:35:00
4:55 AM,73.9,71.1,91,29.88,7.0,SSW,11.5,-,N/A,,Clear,210,2013-06-25 09:55:00
5:15 AM,73.9,70.9,90,29.88,7.0,SSW,10.4,-,N/A,,Clear,210,2013-06-25 10:15:00
5:35 AM,73.4,70.3,90,29.88,7.0,South,8.1,-,N/A,,Clear,190,2013-06-25 10:35:00
5:55 AM,73.0,70.2,91,29.89,5.0,South,6.9,-,N/A,,Clear,180,2013-06-25 10:55:00
6:15 AM,72.9,70.3,92,29.89,5.0,South,8.1,-,N/A,,Clear,180,2013-06-25 11:15:00
6:35 AM,73.4,70.7,91,29.88,5.0,South,8.1,-,N/A,,Clear,190,2013-06-25 11:35:00
6:55 AM,74.8,71.8,90,29.88,5.0,South,9.2,-,N/A,,Clear,190,2013-06-25 11:55:00
7:15 AM,74.3,71.1,90,29.88,7.0,South,10.4,-,N/A,,Clear,190,2013-06-25 12:15:00
7:35 AM,75.2,71.6,89,29.90,7.0,South,8.1,-,N/A,,Clear,190,2013-06-25 12:35:00
7:55 AM,75.2,71.6,89,29.92,7.0,SSW,9.2,-,N/A,,Clear,200,2013-06-25 12:55:00
8:15 AM,75.2,71.6,89,29.92,7.0,SSW,6.9,-,N/A,,Clear,200,2013-06-25 13:15:00
8:35 AM,75.6,71.8,88,29.93,7.0,SW,6.9,-,N/A,Thunderstorm,Clear,220,2013-06-25 13:35:00
8:55 AM,76.5,72.0,86,29.93,7.0,WSW,6.9,-,N/A,,Scattered Clouds,240,2013-06-25 13:55:00
9:15 AM,77.9,72.1,82,29.94,7.0,SW,8.1,-,N/A,,Scattered Clouds,230,2013-06-25 14:15:00
9:35 AM,77.9,71.6,81,29.94,10.0,SSW,5.8,-,N/A,,Scattered Clouds,210,2013-06-25 14:35:00
9:55 AM,77.5,71.6,82,29.94,10.0,Calm,Calm,-,N/A,,Mostly Cloudy,0,2013-06-25 14:55:00
10:15 AM,77.2,72.1,84,29.94,10.0,Calm,Calm,-,N/A,,Overcast,0,2013-06-25 15:15:00
10:35 AM,78.1,72.3,82,29.93,7.0,NNW,9.2,-,N/A,,Overcast,340,2013-06-25 15:35:00
10:55 AM,77.0,71.6,83,29.93,10.0,ENE,3.5,-,N/A,,Overcast,60,2013-06-25 15:55:00
11:15 AM,78.1,71.4,80,29.92,10.0,SSE,3.5,-,N/A,,Mostly Cloudy,150,2013-06-25 16:15:00
11:35 AM,80.6,72.3,76,29.92,10.0,SE,5.8,-,N/A,,Scattered Clouds,130,2013-06-25 16:35:00
11:55 AM,82.2,73.0,74,29.91,10.0,WSW,9.2,-,N/A,,Scattered Clouds,240,2013-06-25 16:55:00
12:15 PM,83.7,72.5,69,29.90,10.0,SW,10.4,-,N/A,,Scattered Clouds,220,2013-06-25 17:15:00
12:35 PM,83.3,73.0,71,29.90,10.0,SW,10.4,-,N/A,,Scattered Clouds,230,2013-06-25 17:35:00
12:55 PM,83.3,72.9,71,29.90,10.0,WSW,10.4,-,N/A,,Mostly Cloudy,240,2013-06-25 17:55:00
1:15 PM,84.6,73.0,68,29.88,10.0,SW,11.5,-,N/A,,Mostly Cloudy,230,2013-06-25 18:15:00
1:35 PM,84.6,73.0,68,29.87,10.0,SW,12.7,-,N/A,,Scattered Clouds,230,2013-06-25 18:35:00
1:55 PM,84.0,72.1,67,29.86,10.0,SW,13.8,-,N/A,,Scattered Clouds,230,2013-06-25 18:55:00
2:15 PM,82.8,72.5,71,29.85,10.0,SSW,13.8,17.3,N/A,,Clear,210,2013-06-25 19:15:00
2:35 PM,84.4,73.2,69,29.86,10.0,SW,12.7,19.6,N/A,,Clear,230,2013-06-25 19:35:00
2:55 PM,83.8,72.9,69,29.86,10.0,SW,16.1,21.9,N/A,,Scattered Clouds,230,2013-06-25 19:55:00
3:15 PM,84.2,72.9,69,29.84,10.0,SW,11.5,18.4,N/A,,Scattered Clouds,220,2013-06-25 20:15:00
3:35 PM,84.2,72.9,69,29.83,10.0,SW,11.5,20.7,N/A,,Clear,220,2013-06-25 20:35:00
3:55 PM,82.8,72.9,72,29.83,10.0,SW,12.7,-,N/A,,Clear,220,2013-06-25 20:55:00
4:15 PM,82.9,73.4,73,29.84,10.0,SW,11.5,-,N/A,,Clear,230,2013-06-25 21:15:00
4:35 PM,81.9,73.0,74,29.83,10.0,SSW,12.7,-,N/A,,Scattered Clouds,210,2013-06-25 21:35:00
4:55 PM,81.5,73.4,76,29.83,10.0,SW,12.7,18.4,N/A,,Scattered Clouds,220,2013-06-25 21:55:00
5:15 PM,81.5,72.5,74,29.82,10.0,SW,11.5,-,N/A,,Clear,230,2013-06-25 22:15:00
5:35 PM,80.6,72.5,76,29.82,10.0,SSW,9.2,-,N/A,,Clear,200,2013-06-25 22:35:00
5:55 PM,80.2,71.2,74,29.81,10.0,SSW,13.8,-,N/A,,Clear,210,2013-06-25 22:55:00
6:15 PM,80.2,70.0,71,29.81,10.0,SSW,12.7,-,N/A,,Clear,200,2013-06-25 23:15:00
6:35 PM,79.0,67.5,68,29.81,10.0,South,8.1,-,N/A,,Clear,190,2013-06-25 23:35:00
7:15 PM,77.9,67.3,70,29.82,10.0,SW,3.5,-,N/A,,Clear,220,2013-06-26 00:15:00
7:35 PM,78.1,67.1,69,29.83,10.0,Calm,Calm,-,N/A,,Clear,0,2013-06-26 00:35:00
7:55 PM,77.9,66.9,69,29.83,10.0,Calm,Calm,-,N/A,,Clear,0,2013-06-26 00:55:00
8:15 PM,76.5,67.8,75,29.83,10.0,SSE,5.8,-,N/A,,Clear,160,2013-06-26 01:15:00
8:35 PM,75.4,67.3,76,29.83,10.0,SE,5.8,-,N/A,,Clear,140,2013-06-26 01:35:00
8:55 PM,75.2,68.0,78,29.82,10.0,South,6.9,-,N/A,,Clear,170,2013-06-26 01:55:00
9:15 PM,74.1,67.5,80,29.83,10.0,SSE,8.1,-,N/A,,Clear,160,2013-06-26 02:15:00
9:35 PM,73.8,67.1,80,29.83,10.0,South,5.8,-,N/A,,Clear,180,2013-06-26 02:35:00
9:55 PM,73.4,67.1,81,29.84,10.0,South,6.9,-,N/A,,Clear,190,2013-06-26 02:55:00
10:15 PM,73.2,67.1,81,29.85,10.0,South,8.1,-,N/A,,Clear,190,2013-06-26 03:15:00
10:35 PM,72.9,67.1,82,29.84,10.0,South,6.9,-,N/A,,Clear,170,2013-06-26 03:35:00
10:55 PM,73.4,67.6,82,29.85,10.0,SSW,11.5,-,N/A,,Clear,200,2013-06-26 03:55:00
11:15 PM,73.9,68.2,82,29.84,10.0,SSW,11.5,-,N/A,,Clear,210,2013-06-26 04:15:00
11:35 PM,73.9,68.0,82,29.83,10.0,SW,8.1,-,N/A,,Scattered Clouds,230,2013-06-26 04:35:00
11:55 PM,74.3,66.9,78,29.83,10.0,SW,10.4,-,N/A,,Scattered Clouds,230,2013-06-26 04:55:00